Météo par heure à Al-Kunajtira

Ce jour, 15 Mai, Samedi

Heure Température Précipitation Vent Pression Humidité
00:00 +18°C° 0 mm 3 m/s 733 mmHg 63%
01:00 +17°C° 0 mm 2 m/s 733 mmHg 66%
02:00 +17°C° 0 mm 2 m/s 733 mmHg 70%
03:00 +17°C° 0 mm 2 m/s 733 mmHg 73%
04:00 +17°C° 0 mm 2 m/s 733 mmHg 75%
05:00 +17°C° 0 mm 2 m/s 733 mmHg 78%
06:00 +19°C° 0 mm 2 m/s 733 mmHg 67%
07:00 +23°C° 0 mm 2 m/s 733 mmHg 55%
08:00 +25°C° 0 mm 3 m/s 733 mmHg 44%
09:00 +27°C° 0 mm 3 m/s 733 mmHg 39%
10:00 +29°C° 0 mm 3 m/s 733 mmHg 33%
11:00 +32°C° 0 mm 4 m/s 733 mmHg 28%
12:00 +32°C° 0 mm 5 m/s 732 mmHg 28%
13:00 +33°C° 0 mm 5 m/s 732 mmHg 27%
14:00 +33°C° 0 mm 6 m/s 732 mmHg 27%
15:00 +30°C° 0 mm 6 m/s 731 mmHg 31%
16:00 +29°C° 0 mm 6 m/s 731 mmHg 35%
17:00 +28°C° 0 mm 5 m/s 731 mmHg 40%
18:00 +25°C° 0 mm 5 m/s 731 mmHg 49%
19:00 +22°C° 0 mm 4 m/s 731 mmHg 59%
20:00 +20°C° 0 mm 3 m/s 731 mmHg 69%
21:00 +19°C° 0 mm 3 m/s 731 mmHg 73%
22:00 +18°C° 0 mm 3 m/s 731 mmHg 76%
23:00 +18°C° 0 mm 3 m/s 731 mmHg 80%

Demain, 16 Mai, Dimanche

Heure Température Précipitation Vent Pression Humidité
00:00 +17°C° 0 mm 2 m/s 731 mmHg 81%
01:00 +17°C° 0 mm 2 m/s 730 mmHg 82%
02:00 +17°C° 0 mm 2 m/s 730 mmHg 83%
03:00 +17°C° 0 mm 2 m/s 730 mmHg 84%
04:00 +17°C° 0 mm 2 m/s 730 mmHg 85%
05:00 +17°C° 0 mm 2 m/s 731 mmHg 86%
06:00 +19°C° 0 mm 2 m/s 731 mmHg 75%
07:00 +21°C° 0 mm 2 m/s 731 mmHg 63%
08:00 +24°C° 0 mm 3 m/s 731 mmHg 51%
09:00 +26°C° 0 mm 4 m/s 731 mmHg 43%
10:00 +28°C° 0 mm 5 m/s 731 mmHg 35%
11:00 +30°C° 0 mm 6 m/s 731 mmHg 27%
12:00 +30°C° 0 mm 6 m/s 731 mmHg 27%
13:00 +30°C° 0 mm 7 m/s 730 mmHg 27%
14:00 +30°C° 0 mm 7 m/s 730 mmHg 27%
15:00 +29°C° 0 mm 6 m/s 730 mmHg 30%
16:00 +28°C° 0 mm 6 m/s 730 mmHg 33%
17:00 +26°C° 0 mm 5 m/s 730 mmHg 36%
18:00 +25°C° 0 mm 4 m/s 730 mmHg 43%
19:00 +22°C° 0 mm 3 m/s 730 mmHg 50%
20:00 +20°C° 0 mm 2 m/s 730 mmHg 57%
21:00 +20°C° 0 mm 2 m/s 730 mmHg 59%
22:00 +20°C° 0 mm 2 m/s 730 mmHg 61%
23:00 +19°C° 0 mm 2 m/s 730 mmHg 63%

Après-demain, 17 Mai, Lundi

Heure Température Précipitation Vent Pression Humidité
00:00 +19°C° 0 mm 2 m/s 730 mmHg 66%
01:00 +18°C° 0 mm 2 m/s 730 mmHg 69%
02:00 +18°C° 0 mm 1 m/s 730 mmHg 72%
03:00 +18°C° 0 mm 1 m/s 730 mmHg 72%
04:00 +18°C° 0 mm 1 m/s 730 mmHg 72%
05:00 +18°C° 0 mm 1 m/s 730 mmHg 72%
06:00 +20°C° 0 mm 1 m/s 730 mmHg 63%
07:00 +21°C° 0 mm 2 m/s 731 mmHg 54%
08:00 +24°C° 0 mm 2 m/s 731 mmHg 44%
09:00 +26°C° 0 mm 4 m/s 731 mmHg 40%
10:00 +27°C° 0 mm 5 m/s 731 mmHg 36%
11:00 +29°C° 0 mm 6 m/s 731 mmHg 33%
12:00 +29°C° 0 mm 7 m/s 731 mmHg 31%
13:00 +29°C° 0 mm 8 m/s 731 mmHg 30%
14:00 +29°C° 0 mm 8 m/s 731 mmHg 29%
15:00 +27°C° 0 mm 8 m/s 731 mmHg 33%
16:00 +26°C° 0 mm 7 m/s 731 mmHg 37%
17:00 +24°C° 0 mm 7 m/s 731 mmHg 41%
18:00 +22°C° 0 mm 6 m/s 731 mmHg 51%
19:00 +20°C° 0 mm 5 m/s 732 mmHg 61%
20:00 +19°C° 0 mm 4 m/s 732 mmHg 72%
21:00 +18°C° 0 mm 4 m/s 732 mmHg 74%
22:00 +18°C° 0 mm 3 m/s 732 mmHg 76%
23:00 +17°C° 0 mm 3 m/s 732 mmHg 79%

18 Mai, Mardi

Heure Température Précipitation Vent Pression Humidité
00:00 +17°C° 0 mm 3 m/s 732 mmHg 80%
01:00 +17°C° 0 mm 2 m/s 732 mmHg 81%
02:00 +17°C° 0 mm 2 m/s 732 mmHg 81%
03:00 +17°C° 0 mm 2 m/s 732 mmHg 82%
04:00 +17°C° 0 mm 2 m/s 733 mmHg 83%
05:00 +17°C° 0 mm 2 m/s 733 mmHg 83%
06:00 +19°C° 0 mm 2 m/s 733 mmHg 73%
07:00 +21°C° 0 mm 2 m/s 734 mmHg 63%
08:00 +24°C° 0 mm 2 m/s 734 mmHg 53%
09:00 +26°C° 0 mm 3 m/s 734 mmHg 46%
10:00 +28°C° 0 mm 3 m/s 734 mmHg 39%
11:00 +30°C° 0 mm 3 m/s 734 mmHg 32%
12:00 +32°C° 0 mm 4 m/s 733 mmHg 31%
13:00 +32°C° 0 mm 5 m/s 733 mmHg 30%
14:00 +33°C° 0 mm 5 m/s 733 mmHg 28%
15:00 +32°C° 0 mm 5 m/s 733 mmHg 31%
16:00 +29°C° 0 mm 5 m/s 733 mmHg 34%
17:00 +28°C° 0 mm 5 m/s 733 mmHg 37%
18:00 +26°C° 0 mm 4 m/s 733 mmHg 43%
19:00 +23°C° 0 mm 4 m/s 733 mmHg 49%
20:00 +21°C° 0 mm 3 m/s 734 mmHg 55%
21:00 +21°C° 0 mm 3 m/s 734 mmHg 55%
22:00 +20°C° 0 mm 2 m/s 733 mmHg 55%
23:00 +20°C° 0 mm 2 m/s 733 mmHg 55%

19 Mai, Mercredi

Heure Température Précipitation Vent Pression Humidité
00:00 +19°C° 0 mm 2 m/s 733 mmHg 57%
01:00 +19°C° 0 mm 2 m/s 733 mmHg 59%
02:00 +20°C° 0 mm 1 m/s 733 mmHg 61%
03:00 +20°C° 0 mm 1 m/s 733 mmHg 62%
04:00 +20°C° 0 mm 1 m/s 733 mmHg 63%
05:00 +20°C° 0 mm 1 m/s 733 mmHg 64%
06:00 +22°C° 0 mm 1 m/s 733 mmHg 56%
07:00 +24°C° 0 mm 1 m/s 734 mmHg 48%
08:00 +27°C° 0 mm 1 m/s 734 mmHg 39%
09:00 +29°C° 0 mm 1 m/s 734 mmHg 34%
10:00 +31°C° 0 mm 2 m/s 733 mmHg 29%
11:00 +34°C° 0 mm 2 m/s 733 mmHg 25%
12:00 +35°C° 0 mm 3 m/s 733 mmHg 23%
13:00 +35°C° 0 mm 4 m/s 733 mmHg 22%
14:00 +36°C° 0 mm 5 m/s 732 mmHg 21%
15:00 +35°C° 0 mm 5 m/s 732 mmHg 23%
16:00 +33°C° 0 mm 5 m/s 732 mmHg 25%
17:00 +32°C° 0 mm 5 m/s 732 mmHg 27%
18:00 +28°C° 0 mm 4 m/s 732 mmHg 32%
19:00 +26°C° 0 mm 3 m/s 732 mmHg 37%
20:00 +24°C° 0 mm 3 m/s 732 mmHg 42%
21:00 +23°C° 0 mm 2 m/s 732 mmHg 45%
22:00 +21°C° 0 mm 2 m/s 732 mmHg 48%
23:00 +21°C° 0 mm 2 m/s 732 mmHg 51%

20 Mai, Jeudi

Heure Température Précipitation Vent Pression Humidité
00:00 +20°C° 0 mm 2 m/s 732 mmHg 54%
01:00 +20°C° 0 mm 2 m/s 732 mmHg 56%
02:00 +20°C° 0 mm 1 m/s 732 mmHg 58%
03:00 +20°C° 0 mm 1 m/s 732 mmHg 59%
04:00 +20°C° 0 mm 1 m/s 732 mmHg 61%
05:00 +20°C° 0 mm 1 m/s 732 mmHg 62%
06:00 +23°C° 0 mm 1 m/s 732 mmHg 53%
07:00 +25°C° 0 mm 1 m/s 732 mmHg 45%
08:00 +28°C° 0 mm 2 m/s 732 mmHg 37%
09:00 +30°C° 0 mm 2 m/s 732 mmHg 32%
10:00 +33°C° 0 mm 3 m/s 732 mmHg 27%
11:00 +35°C° 0 mm 3 m/s 732 mmHg 23%
12:00 +35°C° 0 mm 4 m/s 732 mmHg 21%
13:00 +36°C° 0 mm 4 m/s 731 mmHg 20%
14:00 +36°C° 0 mm 5 m/s 731 mmHg 19%
15:00 +35°C° 0 mm 5 m/s 731 mmHg 21%
16:00 +34°C° 0 mm 5 m/s 731 mmHg 23%
17:00 +32°C° 0 mm 5 m/s 730 mmHg 25%
18:00 +29°C° 0 mm 4 m/s 730 mmHg 29%
19:00 +26°C° 0 mm 4 m/s 731 mmHg 34%
20:00 +24°C° 0 mm 3 m/s 731 mmHg 38%
21:00 +22°C° 0 mm 3 m/s 731 mmHg 41%
22:00 +21°C° 0 mm 3 m/s 731 mmHg 44%
23:00 +21°C° 0 mm 3 m/s 731 mmHg 46%
Voir plus

Nous avons besoin de votre consentement

Meteoprog et ses fournisseurs de services peuvent stocker et accéder à des données personnelles telles que des cookies, des identifiants d'appareils ou d'autres technologies similaires sur votre appareil et traiter ces données pour personnaliser le contenu et les publicités, ainsi que pour fournir des fonctionnalités de médias sociaux et analyser le trafic.

  • Stocker et/ou accéder à des informations sur votre appareil

    Des cookies, des identifiants d'appareils ou d'autres informations peuvent être stockés ou accessibles sur votre appareil aux fins indiquées ci-dessus.

  • Annonces et contenus personnalisés, mesure des annonces et des contenus, connaissance de l'audience et développement de produits

    Les annonces et le contenu peuvent être personnalisés en fonction d'un profil. D'autres données peuvent être ajoutées pour mieux personnaliser les annonces et le contenu. Les performances des publicités et du contenu peuvent être mesurées. Il est possible d'obtenir des informations sur le public qui a vu les publicités et le contenu. Ces données peuvent être utilisées pour développer ou améliorer l'expérience de l'utilisateur, les systèmes et les logiciels.

En cliquant sur "J'accepte", vous autorisez l'utilisation de cookies, des identifiants d'appareils, des balises web ou d'autres technologies similaires. Vos paramètres peuvent être modifiés dans le navigateur de votre appareil.

Dans certains cas, des intérêts légitimes peuvent être invoqués plutôt qu'un consentement. Vous pouvez en savoir plus à ce sujet dans notre Politique de confidentialité et de cookies.